Terug naar catalogus

CZ-6A DEB

ActiefPO
NORAD 61327·DEBRIS·🇨🇳 China

Gelanceerd Aug 6, 2024 vanaf Taiyuan Satellite Launch Center

Loading…

Volgende Passages (komende 24 uur)

TLE

VersSource: Space-Track

Epoch: Sep 13, 2026, 00:40 UTC

1 61327U 24140UQ  26256.02785916  .00087147  00000-0  12417-2 0  9993
2 61327  89.0669 255.3455 0056856  53.5411 307.1073 15.54102120111866

Volg CZ-6A DEB in realtime met AllMySat

Download on the App Store